| time (UTC) | temp F | wind direction | speed MPH | gust MPH | rain 1hr in | rain 24hr in | rain mn in | humidity % | barometer mb |
| 20260906153115 | 90 | 162 | 1.0 | 1.0 | 0.00 | 0.00 | 0.00 | 70 | 1015.6 |
| 20260906152614 | 89 | 179 | 1.0 | 1.0 | 0.00 | 0.00 | 0.00 | 70 | 1015.7 |
| 20260906152109 | 89 | 116 | 1.0 | 1.0 | 0.00 | 0.00 | 0.00 | 71 | 1015.7 |
| 20260906151604 | 89 | 181 | 1.0 | 2.0 | 0.00 | 0.00 | 0.00 | 73 | 1015.8 |
| 20260906151100 | 88 | 85 | 0.0 | 1.0 | 0.00 | 0.00 | 0.00 | 75 | 1015.9 |
| 20260906150555 | 88 | 187 | 2.0 | 2.0 | 0.00 | 0.00 | 0.00 | 76 | 1015.7 |
| 20260906150050 | 88 | 150 | 1.0 | 1.0 | 0.00 | 0.00 | 0.00 | 75 | 1015.8 |
| 20260906145549 | 87 | 200 | 0.0 | 0.0 | 0.00 | 0.00 | 0.00 | 77 | 1015.9 |
| 20260906145044 | 87 | 127 | 1.0 | 2.0 | 0.00 | 0.00 | 0.00 | 76 | 1015.6 |
| 20260906144538 | 86 | 41 | 1.0 | 1.0 | 0.00 | 0.00 | 0.00 | 77 | 1015.7 |
| 20260906144034 | 85 | 186 | 0.0 | 1.0 | 0.00 | 0.00 | 0.00 | 78 | 1015.6 |
| 20260906143528 | 86 | 192 | 0.0 | 0.0 | 0.00 | 0.00 | 0.00 | 78 | 1015.8 |
| 20260906143025 | 86 | 189 | 0.0 | 0.0 | 0.00 | 0.00 | 0.00 | 77 | 1015.7 |
| 20260906142519 | 85 | 191 | 0.0 | 0.0 | 0.00 | 0.00 | 0.00 | 79 | 1015.8 |
| 20260906142015 | 85 | 155 | 3.0 | 3.0 | 0.00 | 0.00 | 0.00 | 79 | 1015.9 |
| 20260906141513 | 84 | 193 | 1.0 | 1.0 | 0.00 | 0.00 | 0.00 | 80 | 1015.8 |
| 20260906141009 | 83 | 120 | 1.0 | 2.0 | 0.00 | 0.00 | 0.00 | 81 | 1015.8 |
| 20260906140503 | 83 | 177 | 1.0 | 1.0 | 0.00 | 0.00 | 0.00 | 83 | 1015.9 |
| 20260906140002 | 83 | 134 | 1.0 | 2.0 | 0.00 | 0.00 | 0.00 | 83 | 1015.8 |
| 20260906135500 | 82 | 180 | 1.0 | 1.0 | 0.00 | 0.00 | 0.00 | 83 | 1015.7 |
| 20260906134955 | 82 | 173 | 1.0 | 1.0 | 0.00 | 0.00 | 0.00 | 85 | 1015.7 |
| 20260906134451 | 80 | 191 | 1.0 | 1.0 | 0.00 | 0.00 | 0.00 | 87 | 1015.4 |
| 20260906133951 | 80 | 112 | 0.0 | 1.0 | 0.00 | 0.00 | 0.00 | 88 | 1015.6 |
| 20260906133446 | 80 | 187 | 0.0 | 1.0 | 0.00 | 0.00 | 0.00 | 88 | 1015.7 |
| 20260906132942 | 80 | 198 | 0.0 | 0.0 | 0.00 | 0.00 | 0.00 | 88 | 1015.6 |
| 20260906132437 | 79 | 185 | 1.0 | 1.0 | 0.00 | 0.00 | 0.00 | 88 | 1015.5 |
| 20260906131932 | 79 | 172 | 0.0 | 0.0 | 0.00 | 0.00 | 0.00 | 89 | 1015.5 |
| 20260906131428 | 79 | 191 | 0.0 | 0.0 | 0.00 | 0.00 | 0.00 | 90 | 1015.6 |
| 20260906130923 | 78 | 197 | 0.0 | 0.0 | 0.00 | 0.00 | 0.00 | 91 | 1015.6 |
| 20260906130423 | 78 | 193 | 0.0 | 1.0 | 0.00 | 0.00 | 0.00 | 91 | 1015.3 |
| 20260906125923 | 78 | 189 | 0.0 | 1.0 | 0.00 | 0.00 | 0.00 | 92 | 1015.7 |
| 20260906125420 | 78 | 199 | 0.0 | 0.0 | 0.00 | 0.00 | 0.00 | 93 | 1015.5 |
| 20260906124914 | 77 | 191 | 0.0 | 1.0 | 0.00 | 0.00 | 0.00 | 93 | 1015.3 |
| 20260906124410 | 77 | 204 | 0.0 | 0.0 | 0.00 | 0.00 | 0.00 | 93 | 1015.2 |
| 20260906123910 | 77 | 203 | 0.0 | 0.0 | 0.00 | 0.00 | 0.00 | 93 | 1015.2 |
| 20260906123404 | 77 | 202 | 0.0 | 0.0 | 0.00 | 0.00 | 0.00 | 93 | 1015.0 |
| 20260906122904 | 77 | 205 | 0.0 | 0.0 | 0.00 | 0.00 | 0.00 | 93 | 1015.2 |
| 20260906122359 | 77 | 207 | 0.0 | 0.0 | 0.00 | 0.00 | 0.00 | 93 | 1015.2 |
| 20260906121855 | 77 | 208 | 0.0 | 0.0 | 0.00 | 0.00 | 0.00 | 93 | 1015.1 |
| 20260906121351 | 77 | 205 | 0.0 | 0.0 | 0.00 | 0.00 | 0.00 | 93 | 1015.2 |
| 20260906120847 | 77 | 184 | 0.0 | 1.0 | 0.00 | 0.00 | 0.00 | 93 | 1014.8 |
| 20260906120343 | 77 | 191 | 2.0 | 2.0 | 0.00 | 0.00 | 0.00 | 93 | 1015.0 |
| 20260906115839 | 77 | 201 | 0.0 | 0.0 | 0.00 | 0.00 | 0.00 | 93 | 1015.0 |
| 20260906115334 | 77 | 200 | 0.0 | 0.0 | 0.00 | 0.00 | 0.00 | 93 | 1015.1 |
| 20260906114833 | 77 | 202 | 1.0 | 1.0 | 0.00 | 0.00 | 0.00 | 93 | 1014.9 |
| 20260906114329 | 77 | 194 | 1.0 | 1.0 | 0.00 | 0.00 | 0.00 | 93 | 1014.9 |
| 20260906113824 | 77 | 195 | 0.0 | 0.0 | 0.00 | 0.00 | 0.00 | 93 | 1014.8 |
| 20260906113323 | 77 | 173 | 1.0 | 1.0 | 0.00 | 0.00 | 0.00 | 93 | 1014.8 |
| 20260906112818 | 78 | 198 | 0.0 | 0.0 | 0.00 | 0.00 | 0.00 | 93 | 1014.9 |
| 20260906112315 | 78 | 202 | 0.0 | 0.0 | 0.00 | 0.00 | 0.00 | 93 | 1014.7 |
| 20260906111814 | 78 | 204 | 0.0 | 0.0 | 0.00 | 0.00 | 0.00 | 93 | 1014.9 |
| 20260906111308 | 78 | 206 | 0.0 | 0.0 | 0.00 | 0.00 | 0.00 | 93 | 1014.8 |
| 20260906110803 | 78 | 204 | 0.0 | 0.0 | 0.00 | 0.00 | 0.00 | 92 | 1014.7 |
| 20260906110259 | 78 | 201 | 0.0 | 0.0 | 0.00 | 0.00 | 0.00 | 92 | 1014.7 |
| 20260906105758 | 78 | 192 | 1.0 | 1.0 | 0.00 | 0.00 | 0.00 | 92 | 1014.6 |
| 20260906105254 | 78 | 198 | 0.0 | 0.0 | 0.00 | 0.00 | 0.00 | 92 | 1014.6 |
| 20260906104749 | 78 | 202 | 0.0 | 0.0 | 0.00 | 0.00 | 0.00 | 92 | 1014.5 |
| 20260906104248 | 78 | 184 | 0.0 | 0.0 | 0.00 | 0.00 | 0.00 | 92 | 1014.6 |
| 20260906103746 | 78 | 193 | 0.0 | 0.0 | 0.00 | 0.00 | 0.00 | 91 | 1014.6 |
| 20260906103245 | 78 | 178 | 0.0 | 0.0 | 0.00 | 0.00 | 0.00 | 91 | 1014.4 |
| 20260906102741 | 78 | 193 | 0.0 | 0.0 | 0.00 | 0.00 | 0.00 | 91 | 1014.6 |
| 20260906102234 | 78 | 192 | 0.0 | 0.0 | 0.00 | 0.00 | 0.00 | 91 | 1014.5 |
| 20260906101730 | 78 | 200 | 0.0 | 0.0 | 0.00 | 0.00 | 0.00 | 90 | 1014.1 |
| 20260906101225 | 78 | 200 | 0.0 | 0.0 | 0.00 | 0.00 | 0.00 | 90 | 1014.3 |
| 20260906100720 | 78 | 200 | 0.0 | 0.0 | 0.00 | 0.00 | 0.00 | 90 | 1014.5 |
| 20260906100220 | 79 | 196 | 0.0 | 0.0 | 0.00 | 0.00 | 0.00 | 89 | 1014.3 |
| 20260906095721 | 79 | 191 | 0.0 | 0.0 | 0.00 | 0.00 | 0.00 | 89 | 1014.3 |
| 20260906095216 | 79 | 199 | 0.0 | 0.0 | 0.00 | 0.00 | 0.00 | 89 | 1014.1 |
| 20260906094714 | 79 | 192 | 0.0 | 0.0 | 0.00 | 0.00 | 0.00 | 88 | 1014.0 |
| 20260906094210 | 79 | 194 | 0.0 | 0.0 | 0.00 | 0.00 | 0.00 | 88 | 1013.9 |
| 20260906093707 | 79 | 195 | 0.0 | 0.0 | 0.00 | 0.00 | 0.00 | 88 | 1013.9 |
| 20260906093201 | 79 | 204 | 0.0 | 0.0 | 0.00 | 0.00 | 0.00 | 88 | 1013.9 |
| 20260906092656 | 79 | 207 | 0.0 | 1.0 | 0.00 | 0.00 | 0.00 | 88 | 1013.9 |
| 20260906092150 | 79 | 199 | 0.0 | 0.0 | 0.00 | 0.00 | 0.00 | 88 | 1013.5 |
| 20260906091647 | 79 | 201 | 0.0 | 0.0 | 0.00 | 0.00 | 0.00 | 87 | 1013.8 |
| 20260906091143 | 79 | 191 | 0.0 | 0.0 | 0.00 | 0.00 | 0.00 | 87 | 1013.8 |
| 20260906090638 | 80 | 192 | 0.0 | 0.0 | 0.00 | 0.00 | 0.00 | 87 | 1013.6 |
| 20260906090132 | 80 | 198 | 0.0 | 0.0 | 0.00 | 0.00 | 0.00 | 87 | 1013.6 |
| 20260906085631 | 80 | 201 | 0.0 | 0.0 | 0.00 | 0.00 | 0.00 | 86 | 1013.6 |
| 20260906085126 | 80 | 185 | 1.0 | 2.0 | 0.00 | 0.00 | 0.00 | 86 | 1013.5 |
| 20260906084626 | 80 | 208 | 0.0 | 1.0 | 0.00 | 0.00 | 0.00 | 86 | 1013.6 |
| 20260906084124 | 80 | 196 | 1.0 | 2.0 | 0.00 | 0.00 | 0.00 | 86 | 1013.6 |
| 20260906083620 | 80 | 203 | 2.0 | 2.0 | 0.00 | 0.00 | 0.00 | 86 | 1013.6 |
| 20260906083115 | 80 | 203 | 1.0 | 2.0 | 0.00 | 0.00 | 0.00 | 85 | 1013.6 |
| 20260906082610 | 80 | 202 | 0.0 | 1.0 | 0.00 | 0.00 | 0.00 | 85 | 1013.4 |
| 20260906082106 | 80 | 211 | 2.0 | 2.0 | 0.00 | 0.00 | 0.00 | 85 | 1013.8 |
| 20260906081602 | 80 | 172 | 1.0 | 1.0 | 0.00 | 0.00 | 0.00 | 85 | 1013.8 |
| 20260906081057 | 80 | 179 | 2.0 | 2.0 | 0.00 | 0.00 | 0.00 | 85 | 1013.9 |
| 20260906080553 | 80 | 194 | 1.0 | 1.0 | 0.00 | 0.00 | 0.00 | 85 | 1013.8 |
| 20260906080049 | 81 | 201 | 0.0 | 0.0 | 0.00 | 0.00 | 0.00 | 85 | 1014.1 |
| 20260906075543 | 81 | 194 | 1.0 | 1.0 | 0.00 | 0.00 | 0.00 | 84 | 1013.9 |
| 20260906075038 | 81 | 184 | 1.0 | 1.0 | 0.00 | 0.00 | 0.00 | 84 | 1013.8 |
| 20260906074533 | 81 | 201 | 0.0 | 1.0 | 0.00 | 0.00 | 0.00 | 84 | 1013.8 |
| 20260906074031 | 81 | 196 | 1.0 | 1.0 | 0.00 | 0.00 | 0.00 | 83 | 1013.8 |
| 20260906073526 | 81 | 195 | 1.0 | 1.0 | 0.00 | 0.00 | 0.00 | 83 | 1014.0 |
| 20260906073023 | 81 | 204 | 0.0 | 1.0 | 0.00 | 0.00 | 0.00 | 83 | 1013.9 |
| 20260906072517 | 81 | 169 | 1.0 | 1.0 | 0.00 | 0.00 | 0.00 | 83 | 1013.7 |
| 20260906072014 | 81 | 208 | 0.0 | 0.0 | 0.00 | 0.00 | 0.00 | 82 | 1014.0 |
| 20260906071509 | 81 | 195 | 0.0 | 0.0 | 0.00 | 0.00 | 0.00 | 82 | 1013.9 |
| 20260906071004 | 81 | 197 | 2.0 | 2.0 | 0.00 | 0.00 | 0.00 | 82 | 1013.8 |
| 20260906070500 | 81 | 179 | 1.0 | 1.0 | 0.00 | 0.00 | 0.00 | 82 | 1014.0 |
| 20260906065956 | 81 | 206 | 0.0 | 0.0 | 0.00 | 0.00 | 0.00 | 82 | 1013.8 |
| 20260906065455 | 81 | 199 | 0.0 | 0.0 | 0.00 | 0.00 | 0.00 | 82 | 1013.9 |
| 20260906064951 | 82 | 203 | 0.0 | 0.0 | 0.00 | 0.00 | 0.00 | 81 | 1013.9 |
| 20260906064447 | 82 | 179 | 2.0 | 2.0 | 0.00 | 0.00 | 0.00 | 81 | 1013.9 |
| 20260906063942 | 82 | 197 | 1.0 | 1.0 | 0.00 | 0.00 | 0.00 | 81 | 1013.8 |
| 20260906063438 | 82 | 189 | 2.0 | 3.0 | 0.00 | 0.00 | 0.00 | 81 | 1014.1 |
| 20260906062937 | 82 | 194 | 0.0 | 1.0 | 0.00 | 0.00 | 0.00 | 81 | 1014.0 |
| 20260906062433 | 82 | 196 | 2.0 | 2.0 | 0.00 | 0.00 | 0.00 | 80 | 1014.3 |
| 20260906061927 | 82 | 215 | 1.0 | 2.0 | 0.00 | 0.00 | 0.00 | 80 | 1013.9 |
| 20260906061424 | 82 | 183 | 2.0 | 2.0 | 0.00 | 0.00 | 0.00 | 80 | 1014.0 |
| 20260906060918 | 82 | 178 | 1.0 | 2.0 | 0.00 | 0.00 | 0.00 | 79 | 1014.4 |
| 20260906060415 | 82 | 206 | 2.0 | 3.0 | 0.00 | 0.00 | 0.00 | 78 | 1014.3 |
| 20260906055911 | 82 | 203 | 0.0 | 1.0 | 0.00 | 0.00 | 0.00 | 78 | 1014.3 |
| 20260906055407 | 83 | 209 | 1.0 | 1.0 | 0.00 | 0.00 | 0.00 | 77 | 1014.3 |
| 20260906054902 | 83 | 154 | 1.0 | 1.0 | 0.00 | 0.00 | 0.00 | 77 | 1014.5 |
| 20260906054356 | 83 | 181 | 1.0 | 1.0 | 0.00 | 0.00 | 0.00 | 77 | 1014.0 |
| 20260906053853 | 83 | 201 | 3.0 | 5.0 | 0.00 | 0.00 | 0.00 | 76 | 1014.3 |
| 20260906053348 | 83 | 192 | 1.0 | 2.0 | 0.00 | 0.00 | 0.00 | 76 | 1014.1 |
| 20260906052844 | 83 | 157 | 2.0 | 2.0 | 0.00 | 0.00 | 0.00 | 76 | 1014.0 |
| 20260906052340 | 83 | 191 | 0.0 | 1.0 | 0.00 | 0.00 | 0.00 | 76 | 1014.0 |
| 20260906051837 | 84 | 193 | 2.0 | 3.0 | 0.00 | 0.00 | 0.00 | 75 | 1013.9 |
| 20260906051336 | 84 | 206 | 1.0 | 2.0 | 0.00 | 0.00 | 0.00 | 75 | 1014.1 |
| 20260906050832 | 84 | 197 | 1.0 | 2.0 | 0.00 | 0.00 | 0.00 | 74 | 1014.4 |
| 20260906050327 | 84 | 177 | 1.0 | 2.0 | 0.00 | 0.00 | 0.00 | 74 | 1014.3 |
| 20260906045826 | 84 | 209 | 2.0 | 2.0 | 0.00 | 0.00 | 0.00 | 73 | 1013.8 |
| 20260906045320 | 84 | 178 | 4.0 | 5.0 | 0.00 | 0.00 | 0.00 | 73 | 1013.6 |
| 20260906044817 | 84 | 201 | 2.0 | 2.0 | 0.00 | 0.00 | 0.00 | 73 | 1013.8 |
| 20260906044317 | 84 | 183 | 1.0 | 1.0 | 0.00 | 0.00 | 0.00 | 73 | 1013.8 |
| 20260906043813 | 84 | 217 | 1.0 | 2.0 | 0.00 | 0.00 | 0.00 | 73 | 1013.8 |
| 20260906043308 | 84 | 175 | 2.0 | 2.0 | 0.00 | 0.00 | 0.00 | 73 | 1013.9 |
| 20260906042803 | 84 | 198 | 1.0 | 1.0 | 0.00 | 0.00 | 0.00 | 72 | 1014.0 |
| 20260906042306 | 85 | 201 | 3.0 | 5.0 | 0.00 | 0.00 | 0.00 | 72 | 1014.1 |
| 20260906041757 | 85 | 192 | 2.0 | 3.0 | 0.00 | 0.00 | 0.00 | 72 | 1013.9 |
| 20260906041252 | 85 | 194 | 1.0 | 2.0 | 0.00 | 0.00 | 0.00 | 72 | 1014.3 |
| 20260906040748 | 85 | 170 | 0.0 | 0.0 | 0.00 | 0.00 | 0.00 | 72 | 1014.0 |
| 20260906040243 | 85 | 194 | 0.0 | 1.0 | 0.00 | 0.00 | 0.00 | 72 | 1014.3 |
| 20260906035738 | 85 | 188 | 1.0 | 2.0 | 0.00 | 0.00 | 0.00 | 71 | 1014.1 |
| 20260906035234 | 85 | 203 | 0.0 | 0.0 | 0.00 | 0.00 | 0.00 | 71 | 1014.1 |
| 20260906034734 | 85 | 171 | 2.0 | 3.0 | 0.00 | 0.00 | 0.00 | 71 | 1013.9 |
| 20260906034229 | 86 | 197 | 1.0 | 1.0 | 0.00 | 0.00 | 0.00 | 71 | 1013.9 |
| 20260906033725 | 86 | 199 | 0.0 | 0.0 | 0.00 | 0.00 | 0.00 | 71 | 1013.9 |
| 20260906033224 | 86 | 161 | 1.0 | 2.0 | 0.00 | 0.00 | 0.00 | 70 | 1014.0 |
| 20260906032721 | 86 | 196 | 0.0 | 0.0 | 0.00 | 0.00 | 0.00 | 71 | 1014.1 |
| 20260906032221 | 86 | 198 | 1.0 | 1.0 | 0.00 | 0.00 | 0.00 | 70 | 1013.9 |
| 20260906031716 | 86 | 197 | 1.0 | 1.0 | 0.00 | 0.00 | 0.00 | 70 | 1014.1 |
| 20260906031212 | 86 | 162 | 2.0 | 2.0 | 0.00 | 0.00 | 0.00 | 70 | 1013.8 |
| 20260906030711 | 86 | 197 | 1.0 | 2.0 | 0.00 | 0.00 | 0.00 | 70 | 1013.6 |
| 20260906030206 | 86 | 191 | 3.0 | 3.0 | 0.00 | 0.00 | 0.00 | 69 | 1014.0 |
| 20260906025706 | 86 | 167 | 4.0 | 5.0 | 0.00 | 0.00 | 0.00 | 69 | 1014.0 |
| 20260906025200 | 86 | 199 | 2.0 | 3.0 | 0.00 | 0.00 | 0.00 | 69 | 1013.9 |
| 20260906024654 | 86 | 202 | 2.0 | 2.0 | 0.00 | 0.00 | 0.00 | 69 | 1014.0 |
| 20260906024153 | 86 | 198 | 1.0 | 1.0 | 0.00 | 0.00 | 0.00 | 69 | 1014.0 |
| 20260906023650 | 86 | 210 | 1.0 | 1.0 | 0.00 | 0.00 | 0.00 | 69 | 1013.8 |
| 20260906023150 | 87 | 192 | 1.0 | 1.0 | 0.00 | 0.00 | 0.00 | 69 | 1013.8 |
| 20260906022644 | 87 | 187 | 1.0 | 1.0 | 0.00 | 0.00 | 0.00 | 69 | 1013.8 |
| 20260906022140 | 87 | 187 | 1.0 | 2.0 | 0.00 | 0.00 | 0.00 | 69 | 1013.5 |
| 20260906021636 | 87 | 209 | 3.0 | 3.0 | 0.00 | 0.00 | 0.00 | 69 | 1013.5 |
| 20260906021134 | 87 | 155 | 2.0 | 2.0 | 0.00 | 0.00 | 0.00 | 68 | 1013.4 |
| 20260906020629 | 87 | 200 | 3.0 | 5.0 | 0.00 | 0.00 | 0.00 | 68 | 1013.3 |
| 20260906020124 | 87 | 178 | 1.0 | 1.0 | 0.00 | 0.00 | 0.00 | 67 | 1013.1 |
| 20260906015618 | 87 | 194 | 1.0 | 2.0 | 0.00 | 0.00 | 0.00 | 67 | 1013.1 |
| 20260906015116 | 87 | 167 | 2.0 | 3.0 | 0.00 | 0.00 | 0.00 | 66 | 1013.2 |
| 20260906014612 | 87 | 168 | 2.0 | 5.0 | 0.00 | 0.00 | 0.00 | 66 | 1013.2 |
| 20260906014108 | 87 | 203 | 2.0 | 3.0 | 0.00 | 0.00 | 0.00 | 66 | 1013.1 |
| 20260906013603 | 87 | 194 | 1.0 | 2.0 | 0.00 | 0.00 | 0.00 | 65 | 1012.9 |
| 20260906013058 | 88 | 207 | 2.0 | 3.0 | 0.00 | 0.00 | 0.00 | 65 | 1012.7 |
| 20260906012553 | 88 | 181 | 2.0 | 3.0 | 0.00 | 0.00 | 0.00 | 64 | 1012.7 |
| 20260906012053 | 88 | 108 | 2.0 | 3.0 | 0.00 | 0.00 | 0.00 | 64 | 1013.0 |
| 20260906011549 | 88 | 124 | 1.0 | 2.0 | 0.00 | 0.00 | 0.00 | 63 | 1012.6 |
| 20260906011049 | 88 | 195 | 1.0 | 2.0 | 0.00 | 0.00 | 0.00 | 63 | 1012.5 |
| 20260906010544 | 88 | 207 | 2.0 | 2.0 | 0.00 | 0.00 | 0.00 | 62 | 1012.5 |
| 20260906010041 | 89 | 153 | 1.0 | 2.0 | 0.00 | 0.00 | 0.00 | 62 | 1012.6 |
| 20260906005540 | 89 | 201 | 6.0 | 8.0 | 0.00 | 0.00 | 0.00 | 62 | 1012.7 |
| 20260906005039 | 90 | 196 | 2.0 | 2.0 | 0.00 | 0.00 | 0.00 | 61 | 1012.7 |
| 20260906004538 | 91 | 169 | 3.0 | 3.0 | 0.00 | 0.00 | 0.00 | 58 | 1012.6 |
| 20260906004033 | 92 | 128 | 6.0 | 8.0 | 0.00 | 0.00 | 0.00 | 56 | 1012.3 |
| 20260906003528 | 93 | 149 | 4.0 | 7.0 | 0.00 | 0.00 | 0.00 | 54 | 1012.4 |
| 20260906003024 | 93 | 93 | 3.0 | 3.0 | 0.00 | 0.00 | 0.00 | 54 | 1012.4 |
| 20260906002519 | 94 | 190 | 3.0 | 3.0 | 0.00 | 0.00 | 0.00 | 53 | 1012.3 |
| 20260906002014 | 94 | 201 | 3.0 | 6.0 | 0.00 | 0.00 | 0.00 | 53 | 1012.3 |
| 20260906001510 | 95 | 162 | 3.0 | 5.0 | 0.00 | 0.00 | 0.00 | 52 | 1012.2 |
| 20260906001004 | 96 | 178 | 3.0 | 5.0 | 0.00 | 0.00 | 0.00 | 51 | 1012.1 |
| 20260906000500 | 97 | 110 | 5.0 | 7.0 | 0.00 | 0.00 | 0.00 | 47 | 1012.1 |
| 20260905235954 | 97 | 141 | 1.0 | 2.0 | 0.00 | 0.00 | 0.00 | 46 | 1012.1 |
| 20260905235454 | 97 | 175 | 3.0 | 3.0 | 0.00 | 0.00 | 0.00 | 46 | 1012.0 |
| 20260905234949 | 98 | 199 | 1.0 | 1.0 | 0.00 | 0.00 | 0.00 | 45 | 1011.9 |
| 20260905234444 | 98 | 142 | 1.0 | 2.0 | 0.00 | 0.00 | 0.00 | 45 | 1011.6 |
| 20260905233938 | 98 | 196 | 1.0 | 1.0 | 0.00 | 0.00 | 0.00 | 45 | 1011.8 |
| 20260905233434 | 98 | 199 | 1.0 | 1.0 | 0.00 | 0.00 | 0.00 | 45 | 1011.6 |
| 20260905232932 | 98 | 189 | 1.0 | 1.0 | 0.00 | 0.00 | 0.00 | 45 | 1011.7 |
| 20260905232429 | 98 | 49 | 2.0 | 3.0 | 0.00 | 0.00 | 0.00 | 45 | 1011.5 |
| 20260905231924 | 98 | 85 | 1.0 | 1.0 | 0.00 | 0.00 | 0.00 | 45 | 1011.7 |
| 20260905231420 | 98 | 235 | 1.0 | 2.0 | 0.00 | 0.00 | 0.00 | 45 | 1011.9 |
| 20260905230916 | 98 | 149 | 0.0 | 1.0 | 0.00 | 0.00 | 0.00 | 45 | 1011.7 |
| 20260905230415 | 99 | 241 | 4.0 | 5.0 | 0.00 | 0.00 | 0.00 | 44 | 1012.0 |
| 20260905225913 | 99 | 161 | 2.0 | 2.0 | 0.00 | 0.00 | 0.00 | 43 | 1011.9 |
| 20260905225409 | 99 | 216 | 2.0 | 2.0 | 0.00 | 0.00 | 0.00 | 42 | 1011.9 |
| 20260905224903 | 99 | 139 | 2.0 | 3.0 | 0.00 | 0.00 | 0.00 | 41 | 1011.8 |
| 20260905224359 | 99 | 181 | 0.0 | 0.0 | 0.00 | 0.00 | 0.00 | 43 | 1011.9 |
| 20260905223853 | 99 | 140 | 3.0 | 3.0 | 0.00 | 0.00 | 0.00 | 43 | 1011.7 |
| 20260905223351 | 99 | 187 | 2.0 | 2.0 | 0.00 | 0.00 | 0.00 | 43 | 1011.8 |
| 20260905222846 | 99 | 117 | 1.0 | 1.0 | 0.00 | 0.00 | 0.00 | 43 | 1011.7 |
| 20260905222344 | 100 | 152 | 4.0 | 5.0 | 0.00 | 0.00 | 0.00 | 42 | 1011.6 |
| 20260905221841 | 100 | 193 | 1.0 | 1.0 | 0.00 | 0.00 | 0.00 | 41 | 1011.8 |
| 20260905221337 | 100 | 150 | 4.0 | 6.0 | 0.00 | 0.00 | 0.00 | 41 | 1011.7 |
| 20260905220833 | 101 | 123 | 0.0 | 0.0 | 0.00 | 0.00 | 0.00 | 40 | 1011.8 |
| 20260905220329 | 101 | 149 | 0.0 | 1.0 | 0.00 | 0.00 | 0.00 | 42 | 1011.9 |
| 20260905215828 | 101 | 184 | 1.0 | 2.0 | 0.00 | 0.00 | 0.00 | 42 | 1012.0 |
| 20260905215324 | 101 | 151 | 0.0 | 0.0 | 0.00 | 0.00 | 0.00 | 42 | 1012.1 |
| 20260905214821 | 101 | 131 | 1.0 | 2.0 | 0.00 | 0.00 | 0.00 | 41 | 1012.0 |
| 20260905214315 | 101 | 80 | 0.0 | 0.0 | 0.00 | 0.00 | 0.00 | 41 | 1012.0 |
| 20260905213810 | 100 | 322 | 3.0 | 3.0 | 0.00 | 0.00 | 0.00 | 41 | 1012.1 |
| 20260905213306 | 100 | 119 | 3.0 | 3.0 | 0.00 | 0.00 | 0.00 | 41 | 1012.4 |
| 20260905212801 | 100 | 66 | 1.0 | 1.0 | 0.00 | 0.00 | 0.00 | 41 | 1012.1 |
| 20260905212300 | 100 | 148 | 0.0 | 1.0 | 0.00 | 0.00 | 0.00 | 41 | 1012.1 |
| 20260905211755 | 101 | 195 | 0.0 | 1.0 | 0.00 | 0.00 | 0.00 | 40 | 1012.2 |
| 20260905211250 | 102 | 141 | 1.0 | 1.0 | 0.00 | 0.00 | 0.00 | 40 | 1012.4 |
| 20260905210747 | 100 | 112 | 3.0 | 3.0 | 0.00 | 0.00 | 0.00 | 41 | 1012.6 |
| 20260905210246 | 102 | 209 | 0.0 | 0.0 | 0.00 | 0.00 | 0.00 | 40 | 1012.5 |
| 20260905205745 | 100 | 261 | 3.0 | 3.0 | 0.00 | 0.00 | 0.00 | 40 | 1012.6 |
| 20260905205240 | 100 | 211 | 1.0 | 1.0 | 0.00 | 0.00 | 0.00 | 41 | 1012.7 |
| 20260905204739 | 100 | 163 | 2.0 | 3.0 | 0.00 | 0.00 | 0.00 | 41 | 1012.7 |
| 20260905204236 | 100 | 209 | 4.0 | 5.0 | 0.00 | 0.00 | 0.00 | 41 | 1012.9 |
| 20260905203735 | 101 | 180 | 1.0 | 1.0 | 0.00 | 0.00 | 0.00 | 41 | 1012.9 |
| 20260905203230 | 100 | 236 | 1.0 | 2.0 | 0.00 | 0.00 | 0.00 | 43 | 1012.8 |
| 20260905202726 | 100 | 231 | 1.0 | 1.0 | 0.00 | 0.00 | 0.00 | 44 | 1013.1 |
| 20260905202221 | 100 | 306 | 3.0 | 3.0 | 0.00 | 0.00 | 0.00 | 43 | 1013.0 |
| 20260905201717 | 100 | 120 | 0.0 | 1.0 | 0.00 | 0.00 | 0.00 | 43 | 1013.1 |
| 20260905201217 | 100 | 189 | 0.0 | 0.0 | 0.00 | 0.00 | 0.00 | 43 | 1013.2 |
| 20260905200712 | 100 | 116 | 2.0 | 3.0 | 0.00 | 0.00 | 0.00 | 43 | 1013.2 |
| 20260905200208 | 101 | 178 | 1.0 | 1.0 | 0.00 | 0.00 | 0.00 | 42 | 1013.2 |
| 20260905195706 | 100 | 204 | 0.0 | 1.0 | 0.00 | 0.00 | 0.00 | 42 | 1013.5 |
| 20260905195201 | 99 | 211 | 0.0 | 1.0 | 0.00 | 0.00 | 0.00 | 44 | 1013.2 |
| 20260905194656 | 99 | 207 | 0.0 | 1.0 | 0.00 | 0.00 | 0.00 | 44 | 1013.5 |
| 20260905194155 | 98 | 56 | 1.0 | 1.0 | 0.00 | 0.00 | 0.00 | 45 | 1013.5 |
| 20260905193650 | 98 | 309 | 3.0 | 3.0 | 0.00 | 0.00 | 0.00 | 45 | 1013.8 |
| 20260905193145 | 98 | 258 | 0.0 | 1.0 | 0.00 | 0.00 | 0.00 | 46 | 1014.0 |
| 20260905192640 | 100 | 200 | 1.0 | 2.0 | 0.00 | 0.00 | 0.00 | 44 | 1013.9 |
| 20260905192136 | 98 | 191 | 0.0 | 1.0 | 0.00 | 0.00 | 0.00 | 46 | 1014.0 |
| 20260905191636 | 99 | 51 | 1.0 | 2.0 | 0.00 | 0.00 | 0.00 | 46 | 1014.0 |
| 20260905191128 | 99 | 202 | 2.0 | 2.0 | 0.00 | 0.00 | 0.00 | 45 | 1014.4 |
| 20260905190627 | 98 | 186 | 1.0 | 2.0 | 0.00 | 0.00 | 0.00 | 47 | 1014.3 |
| 20260905190126 | 98 | 98 | 2.0 | 2.0 | 0.00 | 0.00 | 0.00 | 47 | 1014.1 |
| 20260905185625 | 98 | 205 | 0.0 | 0.0 | 0.00 | 0.00 | 0.00 | 46 | 1014.5 |
| 20260905185120 | 97 | 194 | 3.0 | 3.0 | 0.00 | 0.00 | 0.00 | 47 | 1014.8 |
| 20260905184615 | 98 | 51 | 1.0 | 3.0 | 0.00 | 0.00 | 0.00 | 47 | 1014.6 |
| 20260905184114 | 97 | 150 | 3.0 | 3.0 | 0.00 | 0.00 | 0.00 | 46 | 1014.8 |
| 20260905183613 | 97 | 153 | 1.0 | 3.0 | 0.00 | 0.00 | 0.00 | 49 | 1014.6 |
| 20260905183108 | 98 | 199 | 4.0 | 6.0 | 0.00 | 0.00 | 0.00 | 45 | 1014.9 |
| 20260905182607 | 97 | 208 | 1.0 | 2.0 | 0.00 | 0.00 | 0.00 | 48 | 1015.0 |
| 20260905182102 | 96 | 109 | 1.0 | 1.0 | 0.00 | 0.00 | 0.00 | 50 | 1014.8 |
| 20260905181602 | 95 | 303 | 1.0 | 2.0 | 0.00 | 0.00 | 0.00 | 50 | 1015.1 |
| 20260905181101 | 95 | 148 | 1.0 | 2.0 | 0.00 | 0.00 | 0.00 | 49 | 1015.0 |
| 20260905180556 | 97 | 129 | 1.0 | 1.0 | 0.00 | 0.00 | 0.00 | 48 | 1015.0 |
| 20260905180052 | 97 | 215 | 0.0 | 0.0 | 0.00 | 0.00 | 0.00 | 49 | 1015.2 |
| 20260905175551 | 96 | 203 | 0.0 | 0.0 | 0.00 | 0.00 | 0.00 | 49 | 1015.5 |
| 20260905175047 | 97 | 119 | 1.0 | 2.0 | 0.00 | 0.00 | 0.00 | 50 | 1015.4 |
| 20260905174542 | 95 | 166 | 0.0 | 1.0 | 0.00 | 0.00 | 0.00 | 51 | 1015.6 |
| 20260905174037 | 94 | 232 | 1.0 | 1.0 | 0.00 | 0.00 | 0.00 | 52 | 1015.7 |
| 20260905173534 | 94 | 211 | 0.0 | 0.0 | 0.00 | 0.00 | 0.00 | 53 | 1015.6 |
| 20260905173029 | 94 | 219 | 1.0 | 1.0 | 0.00 | 0.00 | 0.00 | 53 | 1015.8 |
| 20260905172527 | 94 | 205 | 2.0 | 3.0 | 0.00 | 0.00 | 0.00 | 53 | 1015.6 |
| 20260905172023 | 96 | 75 | 1.0 | 2.0 | 0.00 | 0.00 | 0.00 | 52 | 1015.9 |
| 20260905171519 | 96 | 182 | 1.0 | 1.0 | 0.00 | 0.00 | 0.00 | 50 | 1015.9 |
| 20260905171015 | 96 | 209 | 0.0 | 0.0 | 0.00 | 0.00 | 0.00 | 52 | 1015.8 |
| 20260905170512 | 95 | 164 | 1.0 | 1.0 | 0.00 | 0.00 | 0.00 | 53 | 1016.0 |
| 20260905170006 | 94 | 212 | 1.0 | 2.0 | 0.00 | 0.00 | 0.00 | 55 | 1015.9 |
| 20260905165501 | 94 | 171 | 1.0 | 2.0 | 0.00 | 0.00 | 0.00 | 54 | 1016.0 |
| 20260905164956 | 93 | 196 | 1.0 | 2.0 | 0.00 | 0.00 | 0.00 | 56 | 1016.0 |
| 20260905164455 | 94 | 173 | 3.0 | 3.0 | 0.00 | 0.00 | 0.00 | 56 | 1016.3 |
| 20260905163950 | 93 | 260 | 1.0 | 2.0 | 0.00 | 0.00 | 0.00 | 55 | 1016.1 |
| 20260905163447 | 93 | 214 | 5.0 | 6.0 | 0.00 | 0.00 | 0.00 | 57 | 1016.2 |
| 20260905162943 | 94 | 122 | 2.0 | 3.0 | 0.00 | 0.00 | 0.00 | 54 | 1016.1 |
| 20260905162438 | 94 | 279 | 0.0 | 0.0 | 0.00 | 0.00 | 0.00 | 55 | 1016.2 |
| 20260905161933 | 94 | 209 | 0.0 | 0.0 | 0.00 | 0.00 | 0.00 | 55 | 1016.3 |
| 20260905161432 | 93 | 125 | 1.0 | 1.0 | 0.00 | 0.00 | 0.00 | 56 | 1016.1 |
| 20260905160930 | 94 | 152 | 2.0 | 2.0 | 0.00 | 0.00 | 0.00 | 55 | 1016.3 |
| 20260905160425 | 93 | 230 | 1.0 | 1.0 | 0.00 | 0.00 | 0.00 | 59 | 1016.2 |
| 20260905155924 | 92 | 197 | 1.0 | 1.0 | 0.00 | 0.00 | 0.00 | 60 | 1016.0 |
| 20260905155418 | 92 | 210 | 1.0 | 1.0 | 0.00 | 0.00 | 0.00 | 60 | 1016.2 |
| 20260905154917 | 92 | 203 | 0.0 | 1.0 | 0.00 | 0.00 | 0.00 | 60 | 1016.2 |
| 20260905154413 | 90 | 356 | 1.0 | 2.0 | 0.00 | 0.00 | 0.00 | 62 | 1016.1 |
| 20260905153908 | 91 | 195 | 0.0 | 0.0 | 0.00 | 0.00 | 0.00 | 62 | 1016.0 |